Regional Weather Roundup
Issued by NWS

Home | Current Version | Previous Version | Text Only | Print | Product List | Glossary On
Versions: 1 2 3 4 5 6 7 8 9 10 11 12 13 14 15 16 17 18 19 20 21 22 23 24 25 26 27 28 29 30 31 32 33 34 35 36 37 38 39 40 41 42 43 44 45 46 47 48 49 50
000
ASUS44 KFWD 211001
RWRTX
NORTH TEXAS HOURLY WEATHER ROUNDUP
NATIONAL WEATHER SERVICE FORT WORTH TX
500 AM CDT THU SEP 21 2017

NOTE: "FAIR" INDICATES FEW OR NO CLOUDS BELOW 12,000 FEET WITH NO
SIGNIFICANT WEATHER AND/OR OBSTRUCTIONS TO VISIBILITY.

TXZ118-119-211100-
DALLAS/FORT WORTH METROPLEX

CITY           SKY/WX    TMP DP  RH WIND       PRES   REMARKS
DFW AIRPORT    MOCLDY    81  74  79 S13       29.88S
DALLAS LOVE    CLOUDY    80  73  79 S14       29.90S
FTW MEACHAM    CLOUDY    81  74  79 S12       29.89S
DAL-EXECUTIVE  PTCLDY    79  73  82 S10G17    29.90R
FTW-ALLIANCE   CLOUDY    79  73  82 S10       29.89S
FTW-NAS-JRB    CLOUDY    80  72  76 S12       29.90R
ARLINGTON      CLOUDY    79  75  87 S9G21     29.90R
GRAND PRAIRIE  CLOUDY    79  71  76 S10       29.91S
ADDISON        PTCLDY    79  73  81 S9        29.92S
MESQUITE       PTCLDY    76  73  88 S10       29.92S
LANCASTER      PTCLDY    77  72  84 S7        29.93R
$$

TXZ091>094-102>105-117-120-121-131>134-211100-
NORTH CENTRAL TEXAS

CITY           SKY/WX    TMP DP  RH WIND       PRES   REMARKS
SHRMAN/DENISON PTCLDY    77  73  86 S10       29.92R
GAINESVILLE    PTCLDY    78  71  80 SE9       29.92S
BOWIE          CLEAR     78  71  81 SE9       29.89S
BRIDGEPORT     CLOUDY    78  70  76 SE6       29.90S
DENTON         PTCLDY    78  73  84 S9        29.90R
MCKINNEY       CLEAR     78  75  90 S13       29.91R
BONHAM         CLOUDY    75  73  94 S12       29.92R
ROCKWALL       CLEAR     77  75  93 S9G20     29.92R
TERRELL        PTCLDY    78  74  87 S9        29.92S
WAXAHACHIE     CLOUDY    77  73  85 S14G21    29.93S
CLEBURNE       CLOUDY    79  75  89 S13G22    29.93S
$$

TXZ083>090-098>101-113>116-127>130-139>142-154-155-211100-
WESTERN NORTH TEXAS

CITY           SKY/WX    TMP DP  RH WIND       PRES   REMARKS
WICHITA FALLS  CLEAR     78  69  73 S13       29.84S
WF-KICKAPOO    PTCLDY    79  71  76 S8        29.87S
VERNON         PTCLDY    79  65  62 S12       29.84R
ABILENE        CLEAR     77  70  79 S14       29.89S
CISCO          CLEAR     77  70  78 S16       29.91S HAZE
EASTLAND       CLEAR     77  71  80 S8        29.90S
RANGER         CLEAR     77  69  77 S9        29.91S
MINERAL WELLS  PTCLDY    79  70  74 S8        29.88S
STEPHENVILLE   PTCLDY    77  69  76 S7        29.94S
COMANCHE       MOCLDY    77  71  81 S12       29.91S
COLEMAN        PTCLDY    76  69  78 S9        29.91F
$$

TXZ143>147-156>162-174-175-211100-
CENTRAL TEXAS

CITY           SKY/WX    TMP DP  RH WIND       PRES   REMARKS
WACO           PTCLDY    79  73  82 S14       29.92S
WACO-MCGREGOR  PTCLDY    78  74  87 S12       29.92S
HILLSBORO      CLOUDY    79  73  83 S13G22    29.93R
CORSICANA      CLOUDY    78  75  90 S8        29.94R
MEXIA          CLOUDY    77  74  91 S6        29.93S
HEARNE         CLOUDY    77  77 100 CALM      29.94S
CAMERON        PTCLDY    77  75  93 S6        29.92S
TEMPLE         CLOUDY    77  74  90 S15       29.93F
KILLEEN        PTCLDY    76  72  87 S9        29.92S
FORT HOOD      PTCLDY    74  71  91 SE7       29.89F
GATESVILLE     MOCLDY    77  72  83 SE3       29.94F
HAMILTON       PTCLDY    76  71  85 S13       29.93F
LAMPASAS       CLEAR     76  73  90 S3        29.92F
$$

TXZ095>097-106>112-122>126-135>138-148>153-164>167-211100-
EAST TEXAS

CITY           SKY/WX    TMP DP  RH WIND       PRES   REMARKS
PARIS          CLOUDY    75  73  93 S7        29.94R
SULPHUR SPRNGS MOCLDY    79  75  87 S9        29.95S
GILMER         CLOUDY    77  74  89 S6        29.95S
MINEOLA        CLOUDY    79  75  89 S6        29.94S
TYLER          CLOUDY    79  76  90 S9        29.94S
LONGVIEW       CLOUDY    78  76  93 SW7       29.94S
MARSHALL       CLOUDY    73  70  93 CALM      29.98R
ATHENS         CLOUDY    77  73  88 S5        29.94R
PALESTINE      CLOUDY    79  76  91 S7        29.95S
JACKSONVILLE   CLOUDY    76  76  97 S5        29.98R
CENTER         CLOUDY    80  78  95 SE3       29.98R
NACOGDOCHES    CLOUDY    77  75  93 S5        29.96R
LUFKIN         CLOUDY    77  76  96 S3        29.95R
$$

SUPPLEMENTAL OBSERVATIONS (NWS FORT WORTH AREA)

CITY           SKY/WX    TMP DP  RH WIND       PRES   REMARKS
$$

SUPPLEMENTAL OBSERVATIONS (NWS NORMAN AREA)

CITY           SKY/WX    TMP DP  RH WIND       PRES   REMARKS
ODELL            N/A     78  69  75 S15       29.84S
CROWELL          N/A     77  67  69 S8        29.85S
KNOX CITY        N/A     78  64  63 SE8       29.86S
SEYMOUR          N/A     78  68  70 S13       29.86S
$$

SUPPLEMENTAL OBSERVATIONS (NWS SAN ANGELO AREA)

CITY           SKY/WX    TMP DP  RH WIND       PRES   REMARKS
WEINERT          N/A     80  67  65 S13       29.87R
HASKELL          N/A     79  65  62 S9        29.87R
THROCKMORTON     N/A     78  69  74 S6        29.89R
STAMFORD         N/A     80  69  69 S9        29.88S
CLYDE            N/A     77  70  78 S16G23    29.92S
$$

SUPPLEMENTAL OBSERVATIONS (NWS SHREVEPORT AREA)

CITY           SKY/WX    TMP DP  RH WIND       PRES   REMARKS
$$

SUPPLEMENTAL OBSERVATIONS ARE A COLLECTION OF AUTOMATED INSTRUMENTS
THAT ARE MAINTAINED BY A VARIETY OF FEDERAL AND STATE AGENCIES.
CERTAIN ELEMENTS...SUCH AS HUMIDITY VALUES AND SUSTAINED WIND
SPEEDS...MAY BE APPROXIMATED.





USA.gov is the U.S. government's official web portal to all federal, state and local government web resources and services.